Regional Weather Roundup
Issued by NWS

Home | Current Version | Previous Version | Text Only | Print | Product List | Glossary On
Versions: 1 2 3 4 5 6 7 8 9 10 11 12 13 14 15 16 17 18 19 20 21 22 23 24 25 26 27 28 29 30 31 32 33 34 35 36 37 38 39 40 41 42 43 44 45 46 47 48 49 50
000
ASUS43 KMPX 061010
RWRMN
WEATHER ROUNDUP FOR MINNESOTA
NATIONAL WEATHER SERVICE TWIN CITIES/CHANHASSEN MN
500 AM CDT WED MAY 06 2015


NOTE: "FAIR" INDICATES FEW OR NO CLOUDS BELOW 12,000 FEET WITH NO
SIGNIFICANT WEATHER AND/OR OBSTRUCTIONS TO VISIBILITY. N/A MEANS
CURRENT SKY AND/OR WEATHER CONDITIONS ARE NOT AVAILABLE.

MNZ060>063-068>070-061100-
   Twin Cities Metro

CITY           SKY/WX    TMP DP  RH WIND       PRES   REMARKS
TWIN CITIES    CLOUDY    56  54  93 SE13      30.07F FOG
ST PAUL        CLOUDY    55  54  96 SE10      30.08F FOG
CRYSTAL        CLOUDY    57  54  89 VRB7      30.05F FOG
BLAINE         CLOUDY    57  55  94 SE7       30.07S FOG
LAKEVILLE      CLOUDY    54  54 100 E8        30.06F FOG
EDEN PRAIRIE   CLOUDY    56  54  93 E10       30.05F FOG
SOUTH ST PAUL  CLOUDY    56  54  93 SE3       30.07F FOG
LAKE ELMO      CLOUDY    54  54 100 SE6       30.09S FOG
$$
MNZ001>005-007-008-013>017-022>024-027-028-061100-
   Northwest Minnesota

CITY           SKY/WX    TMP DP  RH WIND       PRES   REMARKS
BEMIDJI        MOCLDY    57  45  64 SE10      30.01F
HALLOCK        CLEAR     57  46  67 SE12      29.94F
ROSEAU         CLEAR     55  43  62 SE8       29.99F
WARROAD        CLEAR     54  43  66 SE8       30.01S
THIEF RVR FALL MOCLDY    55  45  67 E8        29.98S
CROOKSTON      MOCLDY    61  52  72 S10       29.96S
FOSSTON        CLOUDY    57  46  67 SE8       29.99S
DETROIT LAKES  CLOUDY    59  54  82 SE13      30.00S
MOORHEAD       CLOUDY    57  55  94 SE18      29.96S
PARK RAPIDS    CLOUDY    59  51  75 SE10      30.01F
MAHNOMEN       CLOUDY    59  53  78 SE8       29.97F
$$
MNZ006-009>011-018-025>026-061100-
   North Central Minnesota

CITY           SKY/WX    TMP DP  RH WIND       PRES   REMARKS
BAUDETTE       CLEAR     50  33  52 SE9       30.04S
FLAG ISLAND    CLEAR     54  39  58 SE10      30.01F
INTL FALLS     CLEAR     44  30  57 SE6       30.07F
WASKISH        FAIR      48  36  61 CALM      30.03F
BIG FORK       FAIR      48  32  53 E3        30.07F
LONGVILLE      CLOUDY    57  48  72 SE7       30.05S
GRAND RAPIDS   MOCLDY    52  34  50 SE7       30.08S
CRANE LAKE     CLEAR     43  28  56 CALM      30.13S
ORR            MOCLDY    48  25  40 SE3       30.07F
COOK           PTCLDY    45  28  53 E5        30.10F
WALKER         CLOUDY    57  47  69 SE6       30.03S
$$
MNZ012-019>021-037-061100-
   Northeast Minnesota

CITY           SKY/WX    TMP DP  RH WIND       PRES   REMARKS
DULUTH         CLOUDY    51  30  44 E12       30.10F
ELY            PTCLDY    36  28  75 CALM      30.13F
HIBBING        MOCLDY    47  30  51 SE6       30.09F
EVELETH        MOCLDY    43  30  61 NE5       30.12S
DULUTH HARBOR  CLOUDY    43  37  81 NE8       30.14S
TWO HARBORS    CLOUDY    52  34  50 NE5       30.12S
SILVER BAY     CLOUDY    45  34  65 N5        30.13F
GRAND MARAIS     N/A     38  29  70 CALM      30.17F
G MARAIS ARPRT CLEAR     32  23  69 CALM      30.18F
$$
MNZ029>031-032-039>041-046>048-054>057-064-061100-
   West Central Minnesota

CITY           SKY/WX    TMP DP  RH WIND       PRES   REMARKS
FERGUS FALLS   CLOUDY    57  54  88 SE15      29.98F
WHEATON        CLOUDY    54  52  94 SE18      29.97F FOG
MORRIS         CLOUDY    55  54  94 SE16      29.97F FOG
ALEXANDRIA     CLOUDY    54  53  97 SE12      30.01F FOG
ELBOW LAKE     CLOUDY    56  54  92 SE12G17   29.97F
WADENA         CLOUDY    55  52  88 SE12      30.00F
GLENWOOD       CLOUDY    54  54 100 E14       30.01F
APPLETON       CLOUDY    57  54  88 SE12      29.97F FOG
BENSON         CLOUDY    55  52  88 SE12G20   29.99F FOG
ORTONVILLE     CLOUDY    55  54  94 SE15      29.96S FOG
MADISON        CLOUDY    55  55 100 SE16      29.96F FOG
WILLMAR        FOG       55  55 100 SE17      30.02S VSB 1
$$
MNZ033>034-036-042>043-049>051-058-059-061100-
   Central Minnesota

CITY           SKY/WX    TMP DP  RH WIND       PRES   REMARKS
ST CLOUD       CLOUDY    56  54  93 SE7       30.04F FOG
SAUK CENTRE    CLOUDY    55  53  95 E8        30.02F FOG
PAYNESVILLE    CLOUDY    52  52 100 E13       30.03F FOG
AITKIN         CLOUDY    57  48  72 SE7       30.05F
PINE RIVER     CLOUDY    55  50  82 SE8       30.07F
BRAINERD       CLOUDY    56  51  84 SE6       30.05F
STAPLES        CLOUDY    55  52  88 SE8       30.03F
LONG PRAIRIE   CLOUDY    54  52  94 E7        30.03F
LITTLE FALLS   CLOUDY    54  52  94 SE7       30.04F FOG
LITCHFIELD     CLOUDY    55  55 100 SE12      30.04S FOG
BUFFALO        CLOUDY    55  53  92 E8        30.06F FOG
MAPLE LAKE     CLOUDY    56  55  97 E7        30.06S FOG
$$
MNZ037-044-045-052-053-061100-
   East Central Minnesota

CITY           SKY/WX    TMP DP  RH WIND       PRES   REMARKS
PRINCETON      CLOUDY    55  54  94 SE6       30.07S FOG
MORA           CLOUDY    54  50  87 SE8       30.10F
CAMBRIDGE      CLOUDY    55  48  76 E6        30.06F
RUSH CITY      CLOUDY    53  49  87 E3        30.09F
MOOSE LAKE     CLOUDY    46  43  87 NE6       30.08S
HINCKLEY       CLOUDY    55  52  88 SE6       30.10S
CLOQUET        LGT RAIN  45  37  76 CALM      30.11S
MCGREGOR       CLOUDY    54  45  71 SE7       30.08F
$$
MNZ071>073-080-081-089-090-097-098-061100-
   Southwest Minnesota

CITY           SKY/WX    TMP DP  RH WIND       PRES   REMARKS
MONTEVIDEO     CLOUDY    55  55 100 S14       29.99F FOG
GRANITE FALLS  CLOUDY    55  54  97 E10G16    30.01R FOG
CANBY          CLOUDY    57  55  94 SE10      29.97S FOG
MARSHALL       CLOUDY    55  52  88 SE12      29.97S
REDWOOD FALLS  FOG       56  55  97 SE14      30.00S VSB 1/2
OLIVIA         FOG       52  50  93 SE12G17   30.00S VSB 1
PIPESTONE      CLOUDY    61  57  88 SE16      29.94F
WORTHINGTON    CLOUDY    61  57  88 SE15      29.98S
JACKSON        FOG       59  55  88 SE12      30.00S VSB 1/2
TRACY          CLOUDY    58  57  97 SE13      29.98F FOG
SLAYTON        FOG       58  58 100 SE14      29.98F VSB 1/2
$$
MNZ065>067-074>077-082>085-091>093-061100-
   South Central Minnesota

CITY           SKY/WX    TMP DP  RH WIND       PRES   REMARKS
MANKATO        CLOUDY    55  55 100 SE14      30.03F
NEW ULM        FOG       55  55 100 SE10      30.02S VSB 3/4
ST JAMES       CLOUDY    57  55  94 SE13      30.02S FOG
FAIRMONT       CLOUDY    57  52  82 SE15      30.01S
GLENCOE        FOG       56  56  99 E12       30.03F VSB 1
FARIBAULT      CLOUDY    55  54  94 SE8       30.06F FOG
OWATONNA       CLOUDY    55  54  94 SE13G21   30.05S FOG
WASECA         CLOUDY    54  52  94 SE15      30.06S FOG
ALBERT LEA     FOG       55  55 100 SE13G20   30.05S VSB 1/2
$$
MNZ078>079-086>088-094>096-061100-
   Southeast Minnesota

CITY           SKY/WX    TMP DP  RH WIND       PRES   REMARKS
ROCHESTER      FOG       54  53  97 SE16      30.09F VSB 1/4
RED WING       CLOUDY    55  54  94 SE13      30.08F FOG
STANTON        CLOUDY    56  53  92 SE3       30.06F FOG
DODGE CENTER   FOG       55  54  94 SE14      30.07F VSB 1/4
WINONA         CLOUDY    54  52  94 E7        30.11F FOG
AUSTIN         FOG       55  54  94 SE10      30.07S VSB 3/4
PRESTON        FOG       53  52  97 SE10      30.10S VSB 1/4
$$
ABBREVIATIONS USED IN REMARKS
   TC - TEMPERATURES IN CELSIUS
  WCI - WIND CHILL INDEX
   HX - HEAT INDEX
  VSB - VISIBILITY
$$


USA.gov is the U.S. government's official web portal to all federal, state and local government web resources and services.